Regional Weather Roundup
Issued by NWS Northern Indiana

Home | Current Version | Previous Version | Graphics & Text | Print | Product List | Glossary On
Versions: 1 2 3 4 5 6 7 8 9 10 11 12 13 14 15 16 17 18 19 20 21 22 23 24 25 26 27 28 29 30 31 32 33 34 35 36 37 38 39 40 41 42 43 44 45 46 47 48 49 50
000
ASUS43 KIWX 301200
RWRIWX

KIWX WEATHER ROUNDUP
NATIONAL WEATHER SERVICE NORTHERN INDIANA
800 AM EDT THU JUL 30 2015

NOTE: "FAIR" INDICATES FEW OR NO CLOUDS BELOW 12,000 FEET WITH NO
SIGNIFICANT WEATHER AND/OR OBSTRUCTIONS TO VISIBILITY.

* THESE STATIONS ARE NOT UNDER NWS QUALITY CONTROL. THEY ALSO MAY NOT
  REPORT WEATHER SUCH AS PRECIPITATION OR FOG.

INZ001>027-301300-
NORTHERN INDIANA

CITY           SKY/WX    TMP DP  RH WIND       PRES   REMARKS
GARY*          SUNNY     70  61  73 W12       30.06R
SOUTH BEND     SUNNY     66  61  84 W5        30.04R
6HR MIN TEMP:  61; 6HR MAX TEMP:  66; 6HR PCP: TRACE;

ELKHART*       SUNNY     64  61  88 W5        30.03R
GOSHEN         SUNNY     65  60  84 W7        30.03R
6HR MIN TEMP:  60; 6HR MAX TEMP:  65; 6HR PCP: TRACE;

MONTICELLO*    SUNNY     64  62  93 NW6       30.06R
6HR MIN TEMP:  62; 6HR MAX TEMP:  66;

ANGOLA*        SUNNY     68  61  77 W5        30.02S
FORT WAYNE     MOSUNNY   66  59  78 W8        30.05R
6HR MIN TEMP:  62; 6HR MAX TEMP:  66;


$$
INZ028>050-301300-
CENTRAL INDIANA

CITY           SKY/WX    TMP DP  RH WIND       PRES   REMARKS
LAFAYETTE      SUNNY     63  62  97 CALM      30.07R
6HR MIN TEMP:  59; 6HR MAX TEMP:  64;

KOKOMO*        MOSUNNY   64  57  77 W7        30.07R
6HR MIN TEMP:  61; 6HR MAX TEMP:  64;

MUNCIE*        SUNNY     65  59  81 NW7       30.07R
6HR MIN TEMP:  62; 6HR MAX TEMP:  69;

INDIANAPOLIS   MOSUNNY   69  58  67 NW8       30.07R
6HR MIN TEMP:  64; 6HR MAX TEMP:  69;


$$
MIZ043>046-050>051-056>058-064>065-071>073-077>080-301300-
SOUTHWEST LOWER MICHIGAN

CITY           SKY/WX    TMP DP  RH WIND       PRES   REMARKS
BATTLE CREEK   SUNNY     69  60  73 W8        30.01R
6HR MIN TEMP:  64; 6HR MAX TEMP:  71;

BENTON HARBOR  SUNNY     72  62  71 W9        30.01R
6HR MIN TEMP:  68; 6HR MAX TEMP:  73;

COLDWATER*     SUNNY     64  59  85 W5        30.01S
6HR MIN TEMP:  59; 6HR MAX TEMP:  64;

HILLSDALE*     SUNNY     68  61  80 W8        30.01S
6HR MIN TEMP:  63; 6HR MAX TEMP:  68;

HOLLAND        SUNNY     72  60  66 W9        29.99R
6HR MIN TEMP:  71; 6HR MAX TEMP:  74;

GRAND RAPIDS   SUNNY     69  59  70 W8        29.98R
6HR MIN TEMP:  64; 6HR MAX TEMP:  69;

KALAMAZOO      SUNNY     69  60  73 W7        30.01R
6HR MIN TEMP:  65; 6HR MAX TEMP:  70;

STURGIS*       SUNNY     64  61  88 W3        30.02R
THREE RIVERS*  FAIR      69  61  74 W8        30.02S

$$
OHZ001>008-015>018-024>025-301300-
NORTHWEST OHIO

CITY           SKY/WX    TMP DP  RH WIND       PRES   REMARKS
DEFIANCE       SUNNY     67  60  78 VRB3      30.02R
6HR MIN TEMP:  62; 6HR MAX TEMP:  67;

FINDLAY        MOSUNNY   66  60  81 W6        30.01R
6HR MIN TEMP:  62; 6HR MAX TEMP:  68;

TOLEDO EXPRESS SUNNY     66  59  78 W7        30.00R
6HR MIN TEMP:  62; 6HR MAX TEMP:  66;

TOLEDO METCALF SUNNY     67  59  75 W7        30.00R
6HR MIN TEMP:  63; 6HR MAX TEMP:  68;

LIMA           SUNNY     67  61  81 W6        30.03R
6HR MIN TEMP:  62; 6HR MAX TEMP:  68;


$$
AND FOR LAKE MICHIGAN COASTAL AND OPEN LAKE BUOY OBSERVATIONS

STATION/POSITION TEMP    WIND        PRES    VSBY  WAVE
                 AIR SEA DIR/SP/G                  HT/PER
                 (F)     (DEG/KT/KT) (MB)    (MI)  (FT/S)
MICHIGAN CITY     73     260/ 19/ 23   N/A
BURNS HARBOR      72     280/ 14/ 18 1017.3R
SAINT JOSEPH      72     250/  9/ 13 1017.3R
4 MI NW BRIDGMAN  72 73  330/ 14/ 16   N/A           3/ 4
MICHIGAN CITY     74 73  290/ 16/ 19   N/A           4/ 4

$$
&&



USA.gov is the U.S. government's official web portal to all federal, state and local government web resources and services.